OneWeb SL0245

operational
NORAD ID: 48778 Int'l Des: 2021-045 Owner: ONEWEBN Country: UK Constellation: oneweb
LEOCIRCULARPOLARONEWEB_TYPE

OneWeb SL0245について

説明を読み込み中...

リアルタイム位置

3D地球を読み込み中...

次回通過

高度履歴

Altitude vs Time

uPlot chart will show altitude changes over time

軌道要素

1 48778U 21045M 25352.35429297 -.00000031 00000-0 -11687-3 0 9996
2 48778 87.8995 295.2694 0001704 70.2485 289.8829 13.15550137220604
Epoch: Dec 18, 2025 • Age: 14 hours

現在のステータス

高度 1204.9 km
速度 7.25 km/s
衛星直下点 26.97°N, 55.49°E
打ち上げ日 May 28, 2021
運用期間 4.5 years
タイプ internet

技術仕様

分類 Payload
質量 148.00 kg
乾燥質量 140.00 kg
総質量 148.00 kg
長さ 1.30 m
直径 1.00 m
スパン 5.00 m
形状 Trapezoid+2 pan
製造者 ONEWUS
バスタイプ ARROW
フェーズステータス In Orbit
所有者/国 ONEWEBN/UK

大規模コンステレーション

Loading constellations...